TimeEST,TemperatureF,Dew PointF,Humidity,Sea Level PressureIn,VisibilityMPH,Wind Direction,Wind SpeedMPH,Gust SpeedMPH,PrecipitationIn,Events,Conditions,WindDirDegrees,DateUTC
12:00 AM,33.8,28.4,81,30.03,6.0,Calm,Calm,-,N/A,,Haze,0,2014-02-02 05:00:00
12:51 AM,35.1,28.0,76,30.01,7.0,Calm,Calm,-,N/A,,Overcast,0,2014-02-02 05:51:00
1:42 AM,33.8,26.6,75,29.97,8.0,Calm,Calm,-,N/A,,Scattered Clouds,0,2014-02-02 06:42:00
1:51 AM,33.1,27.0,78,29.97,7.0,Calm,Calm,-,N/A,,Partly Cloudy,0,2014-02-02 06:51:00
2:51 AM,30.9,26.1,82,29.94,6.0,Calm,Calm,-,N/A,,Haze,0,2014-02-02 07:51:00
3:51 AM,30.0,25.0,82,29.93,10.0,Calm,Calm,-,N/A,,Clear,0,2014-02-02 08:51:00
4:51 AM,33.1,28.0,82,29.93,10.0,Calm,Calm,-,N/A,,Clear,0,2014-02-02 09:51:00
5:51 AM,28.0,24.1,85,29.93,10.0,Calm,Calm,-,N/A,,Clear,0,2014-02-02 10:51:00
6:51 AM,30.0,26.1,85,29.93,10.0,Calm,Calm,-,N/A,,Clear,0,2014-02-02 11:51:00
7:16 AM,30.2,26.6,86,29.94,8.0,Calm,Calm,-,N/A,,Scattered Clouds,0,2014-02-02 12:16:00
7:51 AM,32.0,28.9,88,29.94,8.0,Calm,Calm,-,N/A,,Clear,0,2014-02-02 12:51:00
8:51 AM,35.1,30.9,85,29.95,8.0,South,3.5,-,N/A,,Clear,180,2014-02-02 13:51:00
9:51 AM,39.9,33.1,77,29.95,8.0,South,5.8,-,N/A,,Clear,180,2014-02-02 14:51:00
10:51 AM,44.1,33.1,65,29.95,10.0,South,4.6,-,N/A,,Partly Cloudy,190,2014-02-02 15:51:00
11:51 AM,48.0,34.0,58,29.95,10.0,South,4.6,-,N/A,,Overcast,190,2014-02-02 16:51:00
12:51 PM,52.0,34.0,50,29.93,10.0,Calm,Calm,-,N/A,,Overcast,0,2014-02-02 17:51:00
1:51 PM,54.0,36.0,51,29.93,10.0,WNW,8.1,-,N/A,,Overcast,290,2014-02-02 18:51:00
2:51 PM,53.1,37.9,57,29.92,10.0,Calm,Calm,-,0.00,Rain,Light Rain,0,2014-02-02 19:51:00
3:51 PM,53.1,37.0,55,29.92,10.0,Calm,Calm,-,0.00,,Partly Cloudy,0,2014-02-02 20:51:00
4:51 PM,51.1,37.0,59,29.96,10.0,WNW,4.6,-,N/A,,Partly Cloudy,290,2014-02-02 21:51:00
5:51 PM,50.0,37.0,61,29.96,10.0,Calm,Calm,-,N/A,,Overcast,0,2014-02-02 22:51:00
6:51 PM,46.9,35.1,63,30.01,10.0,NNW,8.1,-,N/A,,Mostly Cloudy,340,2014-02-02 23:51:00
7:51 PM,46.0,35.1,66,30.05,10.0,NW,10.4,-,0.00,Rain,Light Rain,320,2014-02-03 00:51:00
8:51 PM,45.0,35.1,68,30.04,10.0,NW,5.8,-,0.00,,Overcast,320,2014-02-03 01:51:00
9:51 PM,44.1,34.0,68,30.07,10.0,NW,3.5,-,N/A,,Overcast,310,2014-02-03 02:51:00
10:51 PM,44.1,33.1,65,30.09,10.0,NNW,6.9,-,N/A,,Overcast,340,2014-02-03 03:51:00
11:07 PM,44.6,33.8,66,30.08,10.0,North,6.9,-,N/A,,Overcast,350,2014-02-03 04:07:00
11:51 PM,44.1,33.1,65,30.08,10.0,North,5.8,-,N/A,,Overcast,360,2014-02-03 04:51:00